{"data":{"norad_id":58622,"epoch":"2026-09-20T16:39:10.850112Z","epoch_age_seconds":132956,"freshness":"FRESH","line1":"1 58622U 23203E   26263.69387558 -.00000388  00000+0 -45925-5 0  9993","line2":"2 58622  43.0020  45.9068 0001249 276.8666  83.2044 15.27576081153386","mean_motion":15.27576081,"eccentricity":0.0001249,"inclination_deg":43.002,"raan_deg":45.9068,"arg_perigee_deg":276.8666,"mean_anomaly_deg":83.2044,"bstar":-4.5925e-6,"rev_number":15338,"period_min":94.266990555215,"perigee_km":482.20386735151,"apogee_km":483.91779456968,"semimajor_km":6861.1978309606,"source":"CELESTRAK","updated_at":"2026-09-21T09:00:33.922243Z"}}